Reflectivity
3 -18 2 5 13 12 14 15 11 14 15 15 10 7 8 -20 -20 -20 -20 -6 14 16 14 17 16 16 -18 -20 -20 -20 -20 -20 -20 -20 -20 -20 -20 -20 -20 -20 -20 -20 -20 -20 -20 -20 -20
15 14 13 16 14 8 13 14 13 15 16 14 10 -8 -7 -12 -20 -20 -20 8 5 14 15 14 17 9 -20 -20 -20 -20 -20 -20 -20 -20 -20 -20 -20 -20 -20 -20 -20 -20 -20 -20 -20 -20 -20
15 15 11 10 14 6 9 14 13 14 15 15 12 5 -9 15 -20 -20 -20 14 15 13 15 15 16 -11 -20 -20 -20 -20 -20 -20 -20 -20 -20 -20 -20 -20 -20 -20 -20 -20 -20 -20 -20 -20 -20
-19 14 13 14 8 -5 10 10 8 10 13 14 16 12 7 -16 13 -20 3 14 14 15 14 16 14 -20 -20 -20 -20 -20 -20 -20 -20 -20 -20 -20 -20 -20 -20 -20 -20 -20 -20 -20 -20 -20 -20
-5 -20 -20 7 10 12 12 16 7 13 14 13 17 14 4 -14 -2 -17 11 13 10 13 16 14 -20 -20 -20 -20 -20 -20 -20 -20 -20 -20 -20 -20 -20 -20 -20 -20 -20 -20 -20 -20 -20 -20 -20
-20 7 14 11 10 9 10 14 15 16 13 14 15 10 -3 4 9 13 10 6 -7 -2 5 -20 -20 -20 -20 -20 -20 -20 -20 -20 -20 -20 -20 -20 -20 -20 -20 -20 -20 -20 -20 -20 -20 -20 -20
2 11 9 13 14 11 15 14 14 17 14 14 15 12 9 -14 -16 9 11 9 -10 -20 -20 -20 -20 -20 -20 -20 -20 -20 -20 -20 -20 -20 -20 -20 -20 -20 -20 -20 -20 -20 -20 -20 -20 -20 -20
13 17 12 8 17 15 19 12 13 18 15 15 14 13 6 -20 -18 -1 7 7 -20 -20 -20 -20 -20 -20 -20 -20 -20 -20 -20 -20 -20 -20 -20 -20 -20 -20 -20 -20 -20 -20 -20 -20 -20 -20 -20
10 16 17 17 15 17 17 11 6 1 7 16 15 12 -3 -20 -16 -20 5 4 -7 -20 -20 -20 -20 -20 -18 -20 -20 -20 -20 -20 -20 -20 -20 -20 -20 -20 -20 -20 -20 -20 -20 -20 -20 -20 -20
-3 17 17 18 11 14 13 14 -3 -8 -0 7 16 12 12 -20 -10 -17 -8 7 -7 -13 -20 -20 -20 -20 -20 -20 -20 -20 -20 -20 -20 -20 -20 -20 -20 -20 -20 -20 -20 -20 -20 -20 -20 -20 -20
13 15 17 16 6 -8 10 -2 -20 -5 -8 9 16 15 12 13 -20 0 -19 -20 10 -19 -20 2 -20 -20 -20 -20 -20 -20 -20 -20 -20 -20 -20 -20 -20 -20 -20 -20 -20 -20 -20 -20 -20 -20 -20
17 17 16 17 -2 -6 -9 -12 -20 -20 -20 -11 15 16 13 -2 -17 -6 -15 -20 -20 6 -19 -20 -20 -20 -20 -20 -20 -20 -20 -20 -20 -20 -20 -20 -20 -20 -20 -20 -20 -20 -20 -20 -20 -20 -20
15 13 -10 8 3 -20 -10 -20 -20 -20 -20 -20 -20 -15 -20 -11 1 7 13 -10 -20 -20 -20 -17 -18 4 -20 -20 -20 -20 -20 -20 -20 -20 -20 -20 -20 -20 -20 -20 -20 -20 -20 -20 -20 -20 -20
-0 11 -19 14 18 -5 -19 -20 -20 -20 -20 7 -20 -20 -20 -19 18 -5 9 11 -19 -15 -20 -20 -4 6 -0 -16 -16 -20 -20 -20 -20 -20 -20 -20 -20 -20 -20 -20 -20 -20 -20 -20 -20 -20 -20
9 13 12 15 14 2 -20 -20 -20 -20 -20 -20 0 -20 -20 -20 -20 7 6 -5 -20 -20 -20 -20 -8 -10 -20 -20 -18 -5 -18 -15 -20 -20 -20 -20 -20 -20 -20 -20 -20 -20 -20 -20 -20 -20 -20
17 17 5 1 9 6 -20 -20 -20 -20 -20 -20 -20 -19 -18 -20 -20 -20 0 7 -9 7 -20 -20 -20 -17 -20 7 -4 -20 -20 -20 -20 -20 -20 -20 -20 -20 -20 -20 -20 -20 -20 -20 -20 -20 -20
10 -1 -18 -18 -16 -7 -20 -20 -20 -20 -20 -20 -20 -20 -20 -20 -20 -20 -20 -20 -11 13 2 -9 -20 -20 -20 -20 8 -8 -20 -20 -15 7 -20 -20 -20 -20 -20 -20 -20 -20 -20 -20 -20 -20 -20
17 -8 -20 -20 -20 -20 -20 -20 -20 -20 -20 -20 -20 -20 -20 -20 -20 -19 -20 -20 -20 -20 13 17 -7 -19 -20 -20 5 -9 -20 -8 -13 -20 -20 -20 -20 -20 -20 -20 -20 -20 -20 -20 -20 -20 -20
12 12 -20 -20 -20 -20 -20 -20 -20 -20 -20 -20 -20 -20 -20 8 -20 -20 -20 -20 -20 -20 -20 -7 21 13 1 -2 -20 -20 -20 -20 -1 -13 -20 -20 -20 -20 -20 -20 -20 -20 -20 -20 -20 -20 -20
13 2 -20 -20 -20 -20 -20 -20 -20 -20 -20 -20 -20 -20 -20 -18 -20 -19 -20 -20 -20 -20 -20 -20 -12 15 -12 9 13 1 -16 -20 -20 -20 -20 -20 -20 -20 -20 -20 -20 -20 -20 -20 -20 -20 -20
14 15 -20 -20 -20 -20 -20 -20 -20 -20 -20 -20 -20 -20 -20 -20 -19 -5 -14 -20 -20 -20 -20 -20 -20 -13 9 16 10 2 8 15 11 10 8 14 6 -12 -20 -20 -20 -20 -20 -20 -20 -20 -20
15 16 17 -19 -20 -20 -20 -20 -20 -20 -20 -20 -20 -20 -20 -20 -20 -20 -20 -20 -20 -20 -20 -20 -20 -20 -17 -5 -2 -9 -20 -20 -20 -17 -20 -20 -20 -20 -20 -20 -20 -20 -20 -20 -20 -20 -20
3 -20 -20 -20 -20 -20 -20 -3 -20 -20 -20 -20 -20 -20 -20 -20 -20 -20 -20 -20 -20 -20 -20 -20 -20 -20 -20 -18 7 -8 -20 -20 -20 -20 -20 -20 -20 -20 -20 -20 -9 -10 -20 -20 -20 -20 -20
10 -20 -20 -20 -20 -16 -20 5 -20 -20 -20 -20 -20 -20 -20 -20 -20 -20 -20 -20 -20 -20 -20 -20 -20 -20 -20 -20 -20 -20 -20 -18 -20 -20 -20 -20 -20 -20 -20 -20 -20 -20 -20 -20 -20 -20 -20
2 -2 -20 -20 -4 -10 -20 6 -20 -0 -20 -20 -20 -20 -20 -20 -20 -20 -20 -20 -20 -20 -20 -20 -20 -20 -20 -20 -20 -20 -20 -20 -20 -20 -20 -20 -20 -20 -20 -20 -20 -20 -20 -20 -20 -20 -20
-20 -15 -20 4 -1 -20 -2 -20 -20 -20 -20 -20 -20 -20 -20 -20 -20 -20 -20 -20 -20 -20 -20 -20 -20 -20 -20 -20 -20 -20 -20 -20 -20 -20 -20 -20 -20 -20 -20 -20 -20 -20 -20 -20 -20 -20 -20
-9 9 1 -1 -20 -20 -20 -17 -20 -20 -5 -20 -20 -20 -20 -20 -20 -20 -20 -20 -20 -20 -20 -20 -20 -20 -20 -20 -20 -20 -20 -20 -20 -20 -20 -20 -20 -20 -20 -20 -20 -20 -20 -20 -20 -20 -20
9 -9 -20 -20 -0 -20 -3 -20 -20 -20 -10 -17 -20 -20 -20 -20 -20 -20 -20 -20 -20 -20 -20 -20 -20 -20 -20 -20 -20 -20 -20 -20 -20 -20 -20 -20 -20 -20 -20 -20 -20 -20 -20 -20 -20 -20 -20
10 -17 -10 -20 -20 -20 -0 -20 -20 -20 1 -14 1 -20 -20 -20 -20 -20 -20 -20 -20 -20 -20 -20 -20 -20 -20 -20 -20 -20 -20 -20 -20 -20 -20 -20 -20 -20 -20 -20 -20 -20 -20 -20 -20 -20 -20
Wind_Speed
17 18 18 18 17 18 17 17 17 17 17 16 16 16 16 15 15 13 12 11 10 6 8 7 8 9 5 3 8 3 9 17 9 8 8 6 6 7 5 8 4 5 3 7 17 22 20
17 17 18 18 18 18 19 18 17 17 17 17 16 16 15 15 15 14 12 11 10 6 7 8 9 8 1 4 4 8 9 9 8 8 7 6 8 9 4 5 8 8 6 8 16 15 8
18 18 18 19 18 19 19 18 18 17 18 17 17 16 15 15 15 14 14 11 9 6 8 10 11 6 4 9 2 8 10 7 7 8 6 6 2 6 5 3 6 5 5 2 17 10 12
19 18 18 19 18 18 18 19 20 19 18 17 17 16 15 15 15 14 14 14 2 7 8 10 9 3 7 3 2 8 6 5 9 6 4 5 5 3 3 4 3 6 5 5 6 14 7
21 22 22 21 20 19 20 19 19 20 19 18 17 16 15 14 14 13 13 8 5 7 9 9 5 2 7 1 4 7 6 7 6 3 2 4 4 3 4 3 4 0 5 5 5 7 9
20 20 20 21 21 21 20 20 19 20 20 18 18 17 15 14 13 12 13 3 8 8 6 5 7 2 5 5 5 5 4 8 5 5 4 4 3 3 3 4 8 7 3 4 7 5 15
20 20 20 21 21 21 21 21 20 20 19 20 18 17 15 13 11 11 6 5 5 1 6 9 8 5 5 2 5 5 5 7 5 4 5 3 4 9 10 8 6 3 4 7 6 15 15
21 22 22 22 22 22 22 21 21 21 20 20 19 17 15 12 10 8 2 3 3 3 4 17 9 6 3 4 5 4 8 7 7 6 5 3 7 8 9 7 8 6 1 6 15 13 18
20 22 22 23 22 23 24 23 23 23 22 21 19 17 14 10 7 3 4 6 4 8 2 2 8 5 5 4 6 10 11 4 6 6 7 8 6 14 8 7 7 5 8 7 12 13 15
21 22 22 23 24 23 24 25 24 24 24 22 19 15 11 6 0 3 4 6 8 3 2 5 6 5 5 5 2 6 6 5 5 12 7 5 6 9 5 6 6 4 7 7 17 6 6
21 22 23 25 24 25 25 26 26 26 25 23 18 12 7 9 4 3 2 2 5 2 1 6 5 1 8 6 7 2 2 1 7 6 8 8 7 7 5 6 7 7 1 8 12 6 6
22 23 24 24 26 25 26 27 27 27 26 22 16 8 5 3 2 5 5 5 4 3 8 5 5 6 7 4 2 4 4 1 2 3 3 3 1 3 5 3 5 6 5 7 5 4 2
22 22 24 25 27 27 27 28 28 29 27 22 15 6 5 2 2 4 2 3 4 4 2 6 6 7 7 6 5 5 7 5 6 6 4 2 2 1 2 5 5 4 7 3 1 1 6
23 24 26 26 27 29 29 29 30 30 27 21 15 6 6 3 1 2 2 2 3 4 2 1 6 12 6 8 2 6 7 5 1 2 5 7 3 6 3 3 7 6 7 7 8 6 5
23 25 26 27 28 29 31 32 32 32 27 19 15 1 2 2 1 2 2 3 3 1 4 4 7 9 4 3 6 5 7 5 2 3 6 6 3 1 4 2 3 5 8 4 3 2 4
23 24 26 27 29 31 31 33 33 32 26 18 1 1 1 2 2 3 1 6 4 2 4 3 2 7 5 10 5 5 8 3 3 2 2 2 5 1 0 3 2 2 2 3 1 4 5
25 25 27 28 29 31 33 34 35 34 27 10 1 2 3 2 3 3 3 2 4 2 3 5 5 3 2 6 8 5 2 3 5 2 2 1 4 2 3 6 1 2 2 0 2 3 4
24 25 27 29 30 31 32 35 36 35 29 6 2 2 3 1 3 1 2 2 3 2 3 2 4 3 3 4 3 4 4 3 5 3 3 1 5 4 1 0 3 3 2 2 4 4 1
25 26 27 28 30 31 33 35 36 35 22 3 2 1 4 0 2 1 3 3 3 2 1 2 1 3 4 4 4 3 4 3 6 4 3 0 2 4 1 1 2 5 3 2 2 3 2
25 25 27 29 30 32 33 35 35 36 28 4 2 3 4 3 1 3 4 3 3 1 1 2 3 2 2 4 6 5 3 3 4 3 6 1 4 3 7 3 4 5 5 3 4 4 2
25 26 27 28 29 31 33 35 35 37 32 3 4 1 4 2 3 5 4 5 4 2 0 1 2 1 5 4 3 3 3 3 4 3 4 4 5 4 7 9 10 7 7 7 5 0 4
23 25 26 27 28 30 30 33 34 35 28 6 3 3 5 1 4 2 4 3 5 3 1 3 3 4 5 3 4 8 7 4 3 2 2 2 6 4 6 7 8 8 9 11 9 5 8
21 21 23 24 26 27 28 30 31 32 20 4 4 4 1 4 4 1 2 1 4 8 5 2 10 8 13 6 12 14 13 12 7 4 3 3 6 3 2 7 6 4 3 3 5 5 2
22 23 25 26 25 26 27 27 28 28 21 2 2 1 3 2 3 2 2 2 5 2 7 2 5 5 4 13 11 12 16 15 14 14 5 5 4 4 4 3 0 2 1 3 11 5 5
20 22 23 24 24 26 25 24 26 26 24 2 2 3 2 1 2 4 4 6 8 7 5 3 4 3 11 3 4 4 3 5 7 7 10 5 4 5 6 3 1 3 4 5 5 2 2
22 21 21 23 24 25 25 25 25 24 23 4 1 1 0 1 4 8 2 5 3 3 4 4 6 5 5 1 2 4 4 3 2 3 6 5 6 5 3 6 5 4 2 3 2 2 5
19 20 20 22 24 24 24 24 24 23 20 4 2 2 1 4 6 6 3 2 2 4 4 2 1 0 1 1 2 3 2 3 4 4 1 3 4 4 3 4 5 4 4 2 6 5 6
21 22 22 22 23 24 24 23 22 20 17 7 2 4 2 3 7 8 6 6 6 4 3 4 3 2 1 1 3 1 3 2 6 1 2 3 4 2 3 5 3 6 4 6 5 2 5
20 22 23 23 23 23 24 23 22 18 15 10 2 3 4 6 3 1 6 3 3 5 3 1 0 2 1 3 3 4 3 4 5 2 3 2 2 5 3 4 2 2 3 2 4 6 4
Wind_Direction
8 3 359 355 354 352 349 349 348 344 342 341 340 340 340 341 338 336 332 328 312 267 220 208 191 177 125 214 254 195 134 161 144 151 193 184 163 163 180 189 180 212 274 116 95 77 85
2 0 356 355 355 352 347 348 345 342 340 338 339 340 339 338 334 331 329 320 304 263 209 197 191 154 347 235 253 147 141 146 159 156 195 199 184 188 196 192 164 215 215 125 114 103 87
0 357 352 351 352 350 345 344 343 341 338 336 336 339 338 335 333 330 326 316 293 230 193 188 186 169 238 241 44 125 141 171 158 175 165 211 187 155 195 242 198 161 168 145 124 127 130
355 355 0 358 355 353 347 346 345 342 338 336 334 335 334 335 332 330 324 316 234 174 174 181 179 188 248 244 309 131 159 161 159 203 224 135 108 129 163 308 57 108 87 146 157 148 177
5 356 351 352 353 354 351 346 342 338 337 336 333 331 330 332 328 329 320 333 120 138 164 166 124 210 259 307 177 181 150 148 147 172 125 121 85 149 67 90 55 132 186 181 113 156 108
357 357 358 355 354 352 350 346 342 337 335 336 332 331 326 327 325 323 317 282 127 135 166 190 267 208 255 212 170 162 131 128 120 112 64 80 80 115 83 121 191 183 190 185 158 75 82
358 356 360 354 354 354 350 348 343 338 335 331 331 328 321 318 318 315 337 127 129 159 228 192 189 232 114 112 81 141 149 132 98 84 146 205 122 195 198 194 211 79 205 186 119 129 82
2 360 359 357 354 353 349 345 342 339 336 334 328 323 316 310 307 300 295 240 159 152 245 231 255 256 144 145 106 206 128 142 140 181 143 96 225 210 199 209 220 243 275 102 75 97 91
1 1 357 354 355 352 349 347 343 338 336 332 326 318 308 300 293 279 246 240 56 6 189 219 196 186 174 148 166 197 151 174 146 182 181 162 224 195 198 219 199 206 153 183 143 95 76
1 359 355 357 355 354 349 346 344 339 335 331 325 312 296 272 332 207 223 256 279 329 48 207 190 224 143 165 151 188 172 163 182 195 165 201 246 166 176 214 164 219 169 143 151 124 177
360 1 360 356 356 355 351 348 344 340 337 332 325 309 276 214 324 225 313 342 180 64 242 154 159 176 147 156 131 162 104 261 186 182 134 229 181 175 178 197 154 217 104 159 167 159 126
4 2 3 359 356 356 353 349 345 341 339 336 330 308 221 218 219 255 312 339 74 102 243 158 139 172 137 145 103 120 146 206 172 169 85 165 272 140 184 74 155 158 87 40 77 131 238
9 4 1 1 358 357 355 350 346 342 341 337 339 331 181 234 239 316 332 82 99 176 158 165 172 158 165 145 126 160 163 175 163 123 189 102 182 152 110 83 10 112 101 56 7 277 221
10 9 7 2 2 357 356 352 347 344 342 336 334 319 226 261 300 342 117 91 217 199 55 178 137 143 176 135 138 167 141 185 148 147 136 152 225 171 187 176 179 188 159 159 191 192 201
13 11 9 6 3 360 357 353 350 346 341 334 321 222 215 245 239 107 136 201 228 338 313 354 110 166 146 126 139 148 174 158 122 172 173 162 192 354 52 16 100 209 207 191 108 257 102
16 13 12 6 5 1 360 355 352 348 341 331 325 226 313 194 127 85 107 188 138 347 331 333 227 192 165 154 137 176 173 353 122 65 329 182 115 312 102 1 27 155 185 149 25 198 210
16 13 11 10 5 4 359 358 355 351 346 339 63 63 271 148 75 65 210 61 100 70 17 20 354 331 94 173 164 188 125 13 13 43 1 35 104 249 87 18 349 357 187 27 150 180 194
16 12 14 11 7 3 3 360 358 356 350 47 360 42 287 137 86 107 115 31 328 78 340 58 356 4 34 4 69 83 126 36 345 358 165 20 100 96 97 248 38 68 93 22 151 210 24
18 13 15 13 7 3 3 2 359 360 0 347 22 208 312 252 139 133 142 92 73 56 8 94 186 322 52 51 109 86 95 10 10 52 140 243 77 99 44 329 15 66 5 341 110 63 205
17 12 14 13 9 5 4 3 359 358 354 105 41 38 333 30 293 142 155 168 130 22 59 43 144 33 52 70 22 123 113 39 19 51 23 102 74 137 175 121 114 105 37 4 94 102 177
16 14 12 12 9 9 7 3 2 359 353 84 35 274 184 330 337 305 143 134 138 171 128 250 149 205 143 138 92 115 98 102 30 13 24 78 97 86 64 71 78 71 53 26 81 73 121
16 15 11 9 11 11 9 6 6 5 356 73 51 29 350 306 311 349 23 173 148 146 307 223 178 59 79 107 226 173 138 157 181 90 95 37 124 109 58 80 91 79 28 81 71 86 79
14 13 11 13 11 12 10 11 7 11 16 35 342 332 84 320 355 57 259 332 154 136 7 122 130 98 79 77 78 81 80 71 74 109 119 98 130 107 119 125 117 38 325 38 99 52 109
6 14 15 11 9 11 10 12 8 8 21 72 309 324 355 317 52 350 350 89 141 153 136 35 63 91 126 124 86 62 62 58 46 31 31 116 93 85 140 95 171 195 27 17 109 71 62
6 15 10 8 7 10 6 7 11 7 7 55 327 38 344 25 51 43 53 97 63 44 62 65 351 182 163 100 98 106 32 41 359 14 17 46 102 95 128 104 136 315 217 172 176 209 219
1 4 7 6 6 5 2 2 6 4 360 30 40 298 40 62 29 299 109 140 120 76 18 356 4 29 51 214 139 127 160 126 101 29 356 39 69 108 103 122 177 211 200 150 118 332 187
359 3 7 2 1 358 356 360 1 1 357 21 5 13 133 101 9 347 38 312 353 108 109 109 221 219 95 185 102 119 106 119 121 110 182 35 15 100 87 108 294 230 196 119 91 226 151
358 358 359 357 357 352 352 355 356 355 353 14 342 23 103 87 31 32 33 17 343 22 137 186 104 280 140 124 119 113 101 123 85 121 144 131 112 115 74 82 266 168 59 142 193 349 139
353 355 355 355 353 347 351 351 350 348 353 9 11 9 58 79 108 83 80 80 323 280 278 340 153 74 80 105 62 89 79 59 154 155 17 72 134 145 129 187 254 282 148 238 144 143 195